Meteo Giornale » Osservazioni meteo Italia » Bergamo-Orio Al Serio

ore: 15:50 - Osservazioni Meteo Bergamo-Orio Al Serio
Lat. 45° 40' N Lon. 9° 42' E Alt. 238 metri s.l.m.

poco_nuvoloso Europe/Rome

9 °C

Poco Nuvoloso

Temp. 24 Ore

0 °C

11 °C

Sud/Sud-Ovest

7.4 Km/h

Dew point 5 °C

Umidità 75 %

Visibilità  6 Km

Il sole sorge alle ore 07:47

Il sole tramonta alle ore 16:38

Data e Ora Cielo e Fenomeni T °C DP °C Um. % Pres. hPa Vis. km Vento km/h
Oggi h: 15:50 poco_nuvoloso Poco Nuvoloso 9 5 75 1018 6 S/SO 7.4
Oggi h: 15:20 sereno Sereno 9 5 75 1018 7 S/SO 11.1
Oggi h: 14:50 sereno Sereno 11 4 61 1018 10 S/SO 9.3
Oggi h: 14:20 sereno Sereno 11 4 61 1018 10 N 5.5
Oggi h: 13:50 sereno Sereno 10 4 66 1018 8 N 5.5
Oggi h: 13:20 sereno Sereno 10 4 66 1019 9 O 7.4
Oggi h: 12:50 sereno Sereno 9 3 66 1019 9 O 11.1
Oggi h: 12:20 sereno Sereno 9 4 70 1020 10 O/SO 11.1
Oggi h: 11:50 sereno Sereno 9 3 66 1020 9 O 7.4
Oggi h: 11:20 sereno Sereno 8 3 70 1021 9 N 3.7
Oggi h: 10:50 sereno Sereno 7 3 75 1021 9 N 3.7
Oggi h: 10:20 sereno Sereno 6 3 81 1021 10 N 3.7
Oggi h: 09:50 sereno Sereno 4 2 86 1021 10 N 3.7
Oggi h: 09:20 poco_nuvoloso Poco Nuvoloso 3 2 93 1021 10 N 7.4
Oggi h: 08:50 nuvoloso Nuvoloso 2 1 93 1021 9 N 5.5
Oggi h: 08:20 nuvoloso Nuvoloso 1 0 93 1021 9 N 7.4
Oggi h: 07:50 sereno Sereno 0 -0 100 1021 10 N 5.5
Oggi h: 07:20 sereno Sereno 1 0 93 1021 10 N 1.8
Oggi h: 06:20 sereno Sereno 2 1 93 1020 10 N 14.8
Oggi h: 05:50 nuvoloso Nuvoloso 1 0 93 1020 10 N 9.3
Oggi h: 04:50 nuvoloso Nuvoloso 2 1 93 1020 10 N 9.3
Oggi h: 04:20 nuvoloso Nuvoloso 2 1 93 1021 10 N 11.1
Oggi h: 03:50 sereno Sereno 2 0 86 1021 10 N 9.3
Oggi h: 03:20 sereno Sereno 2 1 93 1021 10 N 7.4
Oggi h: 02:50 sereno Sereno 2 1 93 1021 10 N 7.4
Oggi h: 02:20 sereno Sereno 2 1 93 1021 10 N 9.3
Oggi h: 01:50 sereno Sereno 2 1 93 1021 10 N 11.1
Oggi h: 01:20 sereno Sereno 3 2 93 1021 10 N 7.4
Oggi h: 00:50 foschia Foschia 2 1 93 1021 5 N 7.4
Oggi h: 00:20 foschia Foschia 3 2 93 1021 5 N 7.4
Ieri h: 23:50 foschia Foschia 2 2 100 1021 5 N 7.4
Ieri h: 23:20 foschia Foschia 3 2 93 1021 5 N 7.4
Ieri h: 22:50 foschia Foschia 3 3 100 1021 5 N/NE 7.4
Ieri h: 22:20 foschia Foschia 3 2 93 1020 5 N/NE 7.4
Ieri h: 21:50 foschia Foschia 3 2 93 1020 5 N/NE 7.4
Ieri h: 21:20 foschia Foschia 4 3 93 1020 5 N/NE 7.4
Ieri h: 20:50 sereno Sereno 3 3 100 1020 0 N 3.7
Ieri h: 20:20 sereno Sereno 4 3 93 1020 0 N 3.7
Ieri h: 19:50 sereno Sereno 4 3 93 1020 0 N 3.7
Ieri h: 19:20 sereno Sereno 4 3 93 1019 0 N 5.5
Ieri h: 18:50 sereno Sereno 4 4 100 1019 0 N 5.5
Ieri h: 18:20 sereno Sereno 5 4 93 1019 0 N 1.8
Ieri h: 17:50 sereno Sereno 5 4 93 1018 0 N 1.8
Ieri h: 16:50 sereno Sereno 7 5 87 1018 0 N 3.7